Indianapolis, IN

2:28 AM EDT on March 23, 2017 (GMT -0400)
Indianapolis Terry

Weather History for KTYQ - September, 2013

Change the Weather History Date:

Monday, September 23, 2013

  Actual Average (KEYE) Record (KEYE)
Temperature  
Mean Temperature 56 °F -  
Max Temperature 71 °F 71 °F 92 °F (2010)
Min Temperature 41 °F 51 °F 43 °F (2012)
Degree Days  
Heating Degree Days 9    
Growing Degree Days 6 (Base 50)    
Moisture  
Dew Point 43 °F    
Average Humidity 68    
Maximum Humidity 91    
Minimum Humidity 33    
Precipitation  
Precipitation 0.00 in - - ()
Sea Level Pressure  
Sea Level Pressure 30.08 in    
Wind  
Wind Speed 2 mph (East)    
Max Wind Speed 9 mph    
Max Gust Speed -    
Visibility 10 miles    
Events      
Averages and records for this station are not official NWS values.
T = Trace of Precipitation, MM = Missing Value Source: NWS Daily Summary

Daily Weather History Graph

Daily Weather History Graph

Search for Another Location

Airport or City:

Trip Planner

Search our weather history database for the weather conditions in past years. The results will help you decide how hot, cold, wet, or windy it might be!

Date:

Astronomy

Sep. 23, 2013 Rise Set
Actual Time 7:33 AM EDT 7:40 PM EDT
Civil Twilight 7:06 AM EDT 8:07 PM EDT
Nautical Twilight 6:35 AM EDT 8:38 PM EDT
Astronomical Twilight 6:02 AM EDT 9:10 PM EDT
Moon 10:11 PM EDT 11:52 AM EDT
Length of Visible Light 13h 00m
Length of Day
12h 06m
Waning Gibbous, 81% of the Moon is Illuminated
Sep 23
Waning Gibbous
Sep 26
Last Quarter
Oct 4
New
Oct 11
First Quarter
Oct 18
Full

Hourly Weather History & Observations

Time (EDT) Temp. Windchill Dew Point Humidity Pressure Visibility Wind Dir Wind Speed Gust Speed Precip Events Conditions
12:15 AM 46.4 °F - 43.3 °F 89% 30.04 in 10.0 mi Calm Calm - N/A   Clear
12:35 AM 46.4 °F - 43.3 °F 89% 30.04 in 10.0 mi Calm Calm - N/A   Clear
12:55 AM 46.9 °F - 44.1 °F 90% 30.05 in 10.0 mi NNE 3.5 mph - N/A   Clear
1:15 AM 46.4 °F 45.2 °F 43.2 °F 88% 30.06 in 10.0 mi North 3.5 mph - N/A   Clear
1:35 AM 45.7 °F - 42.6 °F 89% 30.05 in 10.0 mi Calm Calm - N/A   Clear
1:55 AM 45.3 °F 44.0 °F 42.3 °F 89% 30.05 in 10.0 mi NE 3.5 mph - N/A   Clear
2:15 AM 47.3 °F - 43.7 °F 87% 30.05 in 10.0 mi NE 3.5 mph - N/A   Clear
2:35 AM 46.4 °F 45.2 °F 42.6 °F 87% 30.06 in 10.0 mi NE 3.5 mph - N/A   Clear
2:55 AM 46.4 °F 45.2 °F 42.6 °F 87% 30.06 in 10.0 mi NE 3.5 mph - N/A   Clear
3:15 AM 46.8 °F - 42.8 °F 86% 30.06 in 10.0 mi ENE 3.5 mph - N/A   Clear
3:35 AM 46.4 °F 45.2 °F 42.8 °F 87% 30.06 in 10.0 mi ENE 3.5 mph - N/A   Clear
3:55 AM 46.0 °F - 42.3 °F 87% 30.06 in 10.0 mi Calm Calm - N/A   Clear
4:15 AM 45.1 °F - 41.4 °F 87% 30.06 in 10.0 mi Calm Calm - N/A   Clear
4:35 AM 44.1 °F - 40.6 °F 88% 30.06 in 10.0 mi Calm Calm - N/A   Clear
4:55 AM 43.7 °F - 40.5 °F 88% 30.06 in 10.0 mi Calm Calm - N/A   Clear
5:15 AM 43.7 °F - 40.5 °F 88% 30.06 in 10.0 mi Calm Calm - N/A   Clear
5:35 AM 43.2 °F 41.5 °F 40.1 °F 89% 30.06 in 10.0 mi ENE 3.5 mph - N/A   Clear
5:55 AM 43.9 °F - 40.8 °F 89% 30.06 in 10.0 mi Calm Calm - N/A   Clear
6:15 AM 42.8 °F - 39.7 °F 89% 30.07 in 10.0 mi Calm Calm - N/A   Clear
6:35 AM 41.9 °F - 38.8 °F 89% 30.07 in 10.0 mi Calm Calm - N/A   Clear
6:55 AM 41.2 °F - 38.3 °F 89% 30.08 in 10.0 mi Calm Calm - N/A   Clear
7:15 AM 41.2 °F - 38.3 °F 89% 30.08 in 10.0 mi Calm Calm - N/A   Clear
7:35 AM 41.0 °F - 38.1 °F 89% 30.09 in 10.0 mi Calm Calm - N/A   Clear
7:55 AM 41.0 °F - 38.3 °F 90% 30.11 in 7.0 mi Calm Calm - N/A   Clear
8:15 AM 43.2 °F - 40.5 °F 90% 30.11 in 10.0 mi Calm Calm - N/A   Clear
8:35 AM 46.2 °F - 43.7 °F 91% 30.11 in 10.0 mi Calm Calm - N/A   Clear
8:55 AM 48.4 °F - 45.7 °F 90% 30.11 in 10.0 mi Calm Calm - N/A   Clear
9:15 AM 50.4 °F - 47.3 °F 89% 30.11 in 10.0 mi SE 3.5 mph - N/A   Clear
9:35 AM 52.5 °F - 46.8 °F 81% 30.11 in 10.0 mi SE 4.6 mph - N/A   Clear
9:55 AM 54.9 °F - 46.8 °F 74% 30.11 in 10.0 mi SE 4.6 mph - N/A   Clear
10:15 AM 56.7 °F - 46.6 °F 69% 30.12 in 10.0 mi SSE 3.5 mph - N/A   Clear
10:35 AM 58.8 °F - 45.9 °F 62% 30.13 in 10.0 mi SE 6.9 mph - N/A   Clear
10:55 AM 60.1 °F - 45.7 °F 59% 30.13 in 10.0 mi SSE 5.8 mph - N/A   Clear
11:15 AM 61.9 °F - 45.7 °F 55% 30.13 in 10.0 mi SE 5.8 mph - N/A   Clear
11:35 AM 62.6 °F - 44.4 °F 51% 30.12 in 10.0 mi SE 4.6 mph - N/A   Clear
11:55 AM 63.1 °F - 43.9 °F 49% 30.12 in 10.0 mi South 5.8 mph - N/A   Clear
12:15 PM 64.4 °F - 44.1 °F 48% 30.12 in 10.0 mi ESE 4.6 mph - N/A   Clear
12:35 PM 65.3 °F - 43.9 °F 46% 30.12 in 10.0 mi SE 6.9 mph - N/A   Clear
12:55 PM 65.3 °F - 43.3 °F 45% 30.12 in 10.0 mi SSE 4.6 mph - N/A   Clear
1:15 PM 66.6 °F - 43.3 °F 43% 30.11 in 10.0 mi SE 5.8 mph - N/A   Clear
1:35 PM 67.3 °F - 43.7 °F 42% 30.11 in 10.0 mi East 4.6 mph - N/A   Clear
1:55 PM 67.1 °F - 42.6 °F 41% 30.10 in 10.0 mi SE 9.2 mph - N/A   Clear
2:15 PM 68.4 °F - 42.8 °F 40% 30.10 in 10.0 mi East 6.9 mph - N/A   Clear
2:35 PM 69.1 °F - 42.1 °F 38% 30.09 in 10.0 mi East 6.9 mph - N/A   Clear
2:55 PM 68.5 °F - 42.4 °F 39% 30.08 in 10.0 mi Calm Calm - N/A   Clear
3:15 PM 69.6 °F - 42.4 °F 37% 30.08 in 10.0 mi East 5.8 mph - N/A   Clear
3:35 PM 69.8 °F - 40.6 °F 35% 30.07 in 10.0 mi ESE 8.1 mph - N/A   Clear
3:55 PM 70.2 °F - 41.2 °F 35% 30.06 in 10.0 mi SSE 4.6 mph - N/A   Clear
4:15 PM 70.7 °F - 41.7 °F 35% 30.06 in 10.0 mi ESE 4.6 mph - N/A   Clear
4:35 PM 70.7 °F - 41.4 °F 35% 30.06 in 10.0 mi ESE 5.8 mph - N/A   Clear
4:55 PM 71.1 °F - 41.2 °F 34% 30.06 in 10.0 mi ESE 6.9 mph - N/A   Clear
5:15 PM 71.6 °F - 41.0 °F 33% 30.05 in 10.0 mi East 5.8 mph - N/A   Clear
5:35 PM 71.1 °F - 41.9 °F 35% 30.05 in 10.0 mi East 5.8 mph - N/A   Clear
5:55 PM 70.7 °F - 40.3 °F 33% 30.05 in 10.0 mi East 4.6 mph - N/A   Clear
6:15 PM 70.2 °F - 41.0 °F 35% 30.05 in 10.0 mi East 4.6 mph - N/A   Clear
6:35 PM 69.6 °F - 41.9 °F 37% 30.05 in 10.0 mi East 3.5 mph - N/A   Clear
6:55 PM 68.9 °F - 42.3 °F 38% 30.05 in 10.0 mi East 4.6 mph - N/A   Clear
7:15 PM 67.1 °F - 43.3 °F 42% 30.05 in 10.0 mi Calm Calm - N/A   Clear
7:35 PM 62.1 °F - 47.5 °F 59% 30.05 in 10.0 mi Calm Calm - N/A   Clear
7:55 PM 57.2 °F - 48.2 °F 72% 30.06 in 10.0 mi Calm Calm - N/A   Clear
8:15 PM 56.5 °F - 47.3 °F 71% 30.06 in 10.0 mi NE 3.5 mph - N/A   Clear
8:35 PM 54.7 °F - 47.7 °F 77% 30.06 in 10.0 mi East 3.5 mph - N/A   Clear
8:55 PM 52.2 °F - 47.7 °F 85% 30.06 in 10.0 mi East 4.6 mph - N/A   Clear
9:15 PM 56.1 °F - 46.6 °F 70% 30.06 in 10.0 mi East 3.5 mph - N/A   Clear
9:35 PM 52.7 °F - 46.8 °F 80% 30.07 in 10.0 mi East 3.5 mph - N/A   Clear
9:55 PM 53.6 °F - 46.4 °F 77% 30.07 in 10.0 mi East 3.5 mph - N/A   Clear
10:15 PM 50.0 °F - 45.9 °F 86% 30.07 in 10.0 mi Calm Calm - N/A   Clear
10:35 PM 49.1 °F - 45.3 °F 87% 30.07 in 10.0 mi Calm Calm - N/A   Clear
10:55 PM 48.6 °F - 45.3 °F 89% 30.07 in 10.0 mi Calm Calm - N/A   Clear
11:15 PM 50.2 °F - 46.4 °F 87% 30.07 in 10.0 mi ENE 3.5 mph - N/A   Clear
11:35 PM 51.3 °F - 46.0 °F 82% 30.07 in 10.0 mi East 3.5 mph - N/A   Clear
11:55 PM 51.4 °F - 45.7 °F 81% 30.06 in 10.0 mi East 4.6 mph - N/A   Clear